Ames, IA

6:19 AM CDT on July 28, 2017 (GMT -0500)
Ames Municipal

Weather History for KAMW - September, 2013

Change the Weather History Date:

Monday, September 30, 2013

  Actual Average Record
Temperature  
Mean Temperature 61 °F 57 °F  
Max Temperature 77 °F 70 °F 90 °F (2002)
Min Temperature 45 °F 44 °F 27 °F (2003)
Degree Days  
Heating Degree Days 4 9  
Month to date heating degree days 78 128  
Since 1 July heating degree days 92 144  
Cooling Degree Days 0 1  
Month to date cooling degree days 145 59  
Year to date cooling degree days 894 742  
Growing Degree Days 10 (Base 50)    
Moisture  
Dew Point 49 °F    
Average Humidity 65    
Maximum Humidity 93    
Minimum Humidity 36    
Precipitation  
Precipitation 0.00 in 0.07 in 0.82 in (1985)
Month to date precipitation 1.92 3.01  
Sea Level Pressure  
Sea Level Pressure 29.82 in    
Wind  
Wind Speed 10 mph (SSE)    
Max Wind Speed 23 mph    
Max Gust Speed 30 mph    
Visibility 10 miles    
Events      
T = Trace of Precipitation, MM = Missing Value Source: NWS Daily Summary

Daily Weather History Graph

Daily Weather History Graph

Search for Another Location

Airport or City:

Trip Planner

Search our weather history database for the weather conditions in past years. The results will help you decide how hot, cold, wet, or windy it might be!

Date:

Astronomy

Sep. 30, 2013 Rise Set
Actual Time 7:10 AM CDT 6:57 PM CDT
Civil Twilight 6:42 AM CDT 7:25 PM CDT
Nautical Twilight 6:10 AM CDT 7:57 PM CDT
Astronomical Twilight 5:37 AM CDT 8:30 PM CDT
Moon 2:44 AM CDT (9/30) 4:31 PM CDT (9/30)
Length of Visible Light 12h 42m
Length of Day
11h 46m
Waning Crescent, 19% of the Moon is Illuminated
Sep 30
Waning Crescent
Oct 4
New
Oct 11
First Quarter
Oct 18
Full
Oct 26
Last Quarter

Hourly Weather History & Observations

Time (CDT) Temp. Windchill Dew Point Humidity Pressure Visibility Wind Dir Wind Speed Gust Speed Precip Events Conditions
12:53 AM 51.1 °F - 46.0 °F 83% 29.91 in 10.0 mi SSE 5.8 mph - N/A   Clear
1:53 AM 48.0 °F - 45.0 °F 89% 29.91 in 10.0 mi SE 3.5 mph - N/A   Clear
2:53 AM 48.0 °F - 45.0 °F 89% 29.89 in 10.0 mi SE 3.5 mph - N/A   Clear
3:53 AM 46.0 °F 43.9 °F 44.1 °F 93% 29.89 in 10.0 mi SE 4.6 mph - N/A   Clear
4:53 AM 46.0 °F - 44.1 °F 93% 29.87 in 10.0 mi Calm Calm - N/A   Clear
5:53 AM 46.0 °F 43.1 °F 45.0 °F 96% 29.87 in 10.0 mi SE 5.8 mph - N/A   Clear
6:53 AM 46.0 °F 43.9 °F 44.1 °F 93% 29.88 in 10.0 mi SE 4.6 mph - N/A   Clear
7:53 AM 48.9 °F - 46.9 °F 93% 29.87 in 10.0 mi SSE 4.6 mph - N/A   Clear
8:53 AM 54.0 °F - 51.1 °F 90% 29.87 in 10.0 mi SSE 5.8 mph - N/A   Clear
9:53 AM 63.0 °F - 52.0 °F 67% 29.86 in 10.0 mi South 15.0 mph - N/A   Clear
10:53 AM 66.0 °F - 51.1 °F 59% 29.84 in 10.0 mi SSW 13.8 mph 23.0 mph N/A   Clear
11:53 AM 69.1 °F - 51.1 °F 53% 29.84 in 10.0 mi South 18.4 mph 24.2 mph N/A   Clear
12:53 PM 72.0 °F - 50.0 °F 46% 29.81 in 10.0 mi South 16.1 mph 24.2 mph N/A   Clear
1:53 PM 73.9 °F - 48.9 °F 41% 29.79 in 10.0 mi South 17.3 mph 25.3 mph N/A   Clear
2:53 PM 75.0 °F - 48.0 °F 38% 29.77 in 10.0 mi South 19.6 mph 24.2 mph N/A   Clear
3:53 PM 75.9 °F - 46.9 °F 36% 29.75 in 10.0 mi South 18.4 mph 27.6 mph N/A   Clear
4:53 PM 75.0 °F - 48.9 °F 40% 29.73 in 10.0 mi South 15.0 mph 23.0 mph N/A   Clear
5:53 PM 73.9 °F - 48.0 °F 40% 29.73 in 10.0 mi South 13.8 mph 21.9 mph N/A   Clear
6:53 PM 68.0 °F - 48.9 °F 50% 29.74 in 10.0 mi South 6.9 mph - N/A   Clear
7:53 PM 66.0 °F - 50.0 °F 56% 29.75 in 10.0 mi South 9.2 mph - N/A   Clear
8:53 PM 64.0 °F - 48.9 °F 58% 29.77 in 10.0 mi South 8.1 mph - N/A   Clear
9:53 PM 64.0 °F - 52.0 °F 65% 29.76 in 10.0 mi South 9.2 mph - N/A   Clear
10:53 PM 62.1 °F - 54.0 °F 75% 29.77 in 10.0 mi South 6.9 mph - N/A   Clear
11:53 PM 60.1 °F - 55.0 °F 83% 29.78 in 10.0 mi South 5.8 mph - N/A   Clear